"2016-01-05 00:00:00",1257051,1.828,339.3,5.318,0.939,7.11,101.0513,1.982,3.17,27.78,0,109.9,13.28,2.74,301.3
"2016-01-05 00:00:30",1257052,2.382,343.5,6.54,1.307,7.924,101.0516,1.982,3.149,27.81,0,109.9,13.27,2.74,305.5
"2016-01-05 00:01:00",1257053,2.313,344.8,6.135,1.261,8.24,101.0513,1.982,3.207,27.88,0,109.9,13.28,2.74,306.8
"2016-01-05 00:01:30",1257054,2.662,348.4,6.995,1.333,8.8,101.0434,1.961,3.237,27.91,0,109.9,13.28,2.72,310.4
"2016-01-05 00:02:00",1257055,1.551,343.2,0.649,0.039,6.109,101.0377,1.947,3.023,27.77,0,109.9,13.32,2.71,305.2
"2016-01-05 00:02:30",1257056,2.346,348.5,6.607,1.186,7.6,101.0253,1.915,3.184,27.98,0,109.9,13.28,2.67,310.5
"2016-01-05 00:03:00",1257057,3.069,352.8,6.877,1.366,8.59,101.0179,1.897,3.145,27.96,0,109.9,13.28,2.66,314.8
"2016-01-05 00:03:30",1257058,1.534,347.9,1.537,0.042,6.05,101.0176,1.896,2.984,27.86,0,109.9,13.33,2.65,309.9
"2016-01-05 00:04:00",1257059,2.015,351.2,6.101,1.05,7.143,101.0176,1.896,3.099,27.98,0,109.9,13.29,2.65,313.2
"2016-01-05 00:04:30",1257060,3.103,358.7,7.176,1.339,9.55,101.0176,1.896,3.22,28.16,0,109.9,13.29,2.65,320.7
"2016-01-05 00:05:00",1257061,2.857,354.3,7.355,1.386,8.61,101.0176,1.896,3.086,28.11,0,109.9,13.29,2.65,316.3
"2016-01-05 00:05:30",1257062,1.42,347.3,0.92,0.039,5.684,101.0176,1.896,2.956,28.07,0,109.9,13.33,2.65,309.3
"2016-01-05 00:06:00",1257063,2.607,354.6,7.141,1.392,8.16,101.0179,1.897,3.165,28.32,0,109.9,13.29,2.66,316.6
"2016-01-05 00:06:30",1257064,2.369,352.3,6.772,1.316,7.509,101.0179,1.897,3.06,28.24,0,109.9,13.29,2.66,314.3
"2016-01-05 00:07:00",1257065,1.321,347.3,0.82,0.037,5.573,101.0191,1.899,2.949,28.18,0,109.9,13.34,2.66,309.3
"2016-01-05 00:07:30",1257066,1.943,349.3,5.96,1.166,6.753,101.0242,1.913,2.978,28.23,0,109.9,13.3,2.67,311.3
"2016-01-05 00:08:00",1257067,2.799,352.7,7.018,1.302,8.82,101.0236,1.911,3.133,28.4,0,109.9,13.3,2.67,314.7
"2016-01-05 00:08:30",1257068,2.443,351.2,6.791,1.345,8.34,101.0276,1.921,3.172,28.45,0,109.9,13.3,2.68,313.2
"2016-01-05 00:09:00",1257069,1.354,346.5,4.307,0.688,6.177,101.0271,1.92,3.008,28.27,0,109.9,13.3,2.68,308.5
"2016-01-05 00:09:30",1257070,2.104,350.1,6.715,1.316,7.391,101.0294,1.926,3.04,28.31,0,109.9,13.3,2.68,312.1
"2016-01-05 00:10:00",1257071,2.251,349.9,6.963,1.342,7.637,101.0328,1.934,3.061,28.33,0,109.9,13.3,2.69,311.9
"2016-01-05 00:10:30",1257072,1.178,344.2,0.681,0.026,5.639,101.0302,1.928,2.959,28.17,0,109.9,13.35,2.69,306.2
"2016-01-05 00:11:00",1257073,1.928,347.3,6.223,1.233,7.073,101.0286,1.924,3.01,28.18,0,109.9,13.3,2.68,309.3
"2016-01-05 00:11:30",1257074,2.266,348.3,7.023,1.325,7.947,101.0309,1.93,3.168,28.31,0,109.8,13.3,2.69,310.3
"2016-01-05 00:12:00",1257075,2.353,347.1,6.923,1.299,7.706,101.0306,1.929,3.047,28.17,0,109.8,13.3,2.69,309.1
"2016-01-05 00:12:30",1257076,1.983,344.8,6.463,1.218,7.218,101.0244,1.913,3.117,28.27,0,109.8,13.3,2.67,306.8
"2016-01-05 00:13:00",1257077,1.983,343.6,6.082,1.241,6.929,101.0233,1.91,3.045,28.23,0,109.8,13.3,2.67,305.6
"2016-01-05 00:13:30",1257078,2.254,345.2,7.01,1.344,7.355,101.0238,1.912,3.138,28.38,0,109.8,13.3,2.67,307.2
"2016-01-05 00:14:00",1257079,1.676,342.8,5.49,1.039,6.36,101.0233,1.91,2.938,28.22,0,109.8,13.3,2.67,304.8
"2016-01-05 00:14:30",1257080,1.943,343,6.006,1.225,7.149,101.0276,1.921,3.052,28.34,0,109.8,13.3,2.68,305.0
"2016-01-05 00:15:00",1257081,1.89,343.6,6.363,1.173,7.298,101.0256,1.916,3.089,28.39,0,109.8,13.3,2.67,305.6
"2016-01-05 00:15:30",1257082,1.52,341.9,5.039,0.946,6.438,101.0205,1.903,2.98,28.32,0,109.8,13.3,2.66,303.9
"2016-01-05 00:16:00",1257083,1.826,342.6,6.179,1.173,6.998,101.018,1.897,3.042,28.43,0,109.8,13.3,2.66,304.6
"2016-01-05 00:16:30",1257084,2.011,343.8,6.781,1.281,7.77,101.018,1.897,3.075,28.51,0,109.8,13.3,2.66,305.8
"2016-01-05 00:17:00",1257085,2.365,344.3,6.847,1.369,8.25,101.018,1.897,3.053,28.5,0,109.8,13.3,2.66,306.3
"2016-01-05 00:17:30",1257086,1.908,342.1,6.566,1.237,7.49,101.018,1.897,3.02,28.45,0,109.8,13.3,2.66,304.1
"2016-01-05 00:18:00",1257087,1.837,341.6,6.31,1.222,7.627,101.018,1.897,3.023,28.43,0,109.8,13.3,2.66,303.6
"2016-01-05 00:18:30",1257088,2.391,345.7,7.091,1.375,8.98,101.018,1.897,3.104,28.47,0,109.8,13.3,2.66,307.7
"2016-01-05 00:19:00",1257089,1.231,339.8,0.679,0.489,5.712,101.0143,1.887,2.9,28.26,0,109.8,13.3,2.65,301.8
"2016-01-05 00:19:30",1257090,1.236,340.5,0.76,0.06,5.459,101.0112,1.879,2.899,28.25,0,109.8,13.35,2.64,302.5
"2016-01-05 00:20:00",1257091,2.142,344.9,6.205,1.271,7.155,101.0058,1.866,2.996,28.35,0,109.8,13.31,2.62,306.9
"2016-01-05 00:20:30",1257092,2.513,348,7.261,1.379,8.14,100.9996,1.85,3.088,28.39,0,109.8,13.31,2.61,310.0
"2016-01-05 00:21:00",1257093,2.529,351.2,6.94,1.398,8.46,100.9945,1.837,3.041,28.35,0,109.8,13.31,2.60,313.2
"2016-01-05 00:21:30",1257094,2.381,352.2,6.495,1.363,8.34,100.9863,1.816,3.032,28.34,0,109.8,13.31,2.57,314.2
"2016-01-05 00:22:00",1257095,2.527,355.6,7.232,1.391,8.08,100.986,1.815,3.04,28.37,0,109.8,13.31,2.57,317.6
"2016-01-05 00:22:30",1257096,1.128,350.3,1.441,0.08,5.214,100.9889,1.822,2.887,28.33,0,109.8,13.36,2.58,312.3
"2016-01-05 00:23:00",1257097,1.03,352.4,2.45,0.119,5.167,100.9906,1.827,2.883,28.45,0,109.8,13.36,2.59,314.4
"2016-01-05 00:23:30",1257098,1.032,352.5,1.741,0.109,5.352,100.9918,1.83,2.881,28.51,0,109.8,13.36,2.59,314.5
"2016-01-05 00:24:00",1257099,2.256,0.402,7.849,1.338,8.16,100.9943,1.836,3.038,28.69,0,109.8,13.32,2.59,322.4
"2016-01-05 00:24:30",1257100,2.38,2.927,7.936,1.437,9.1,100.9986,1.847,3.098,28.75,0,109.8,13.32,2.61,324.9
"2016-01-05 00:25:00",1257101,2.02,359.8,7.057,1.42,8.38,101.0003,1.852,3.111,28.78,0,109.8,13.32,2.61,321.8
"2016-01-05 00:25:30",1257102,2.224,359.9,9.59,1.292,8.42,101,1.851,3.033,28.69,0,109.8,13.32,2.61,321.9
"2016-01-05 00:26:00",1257103,0.971,349.7,1.377,0.098,5.243,101.0015,1.855,2.896,28.54,0,109.8,13.36,2.61,311.7
"2016-01-05 00:26:30",1257104,0.985,349,0.858,0.042,5.035,101.0023,1.857,2.897,28.5,0,109.8,13.36,2.62,311.0
"2016-01-05 00:27:00",1257105,0.907,349.5,1.122,0.065,5.211,101.0052,1.864,2.899,28.46,0,109.8,13.36,2.62,311.5
"2016-01-05 00:27:30",1257106,0.871,350.5,0.998,0.056,5.618,101.0078,1.871,2.91,28.37,0,109.8,13.36,2.63,312.5
"2016-01-05 00:28:00",1257107,2.244,0.79,7.564,1.362,9.05,101.01,1.876,3.167,28.55,0,109.8,13.32,2.63,322.8
"2016-01-05 00:28:30",1257108,2.467,3.391,7.877,1.318,9.74,101.0103,1.877,3.161,28.64,0,109.8,13.32,2.64,325.4
"2016-01-05 00:29:00",1257109,1.321,1.828,8.29,1.277,7.996,101.0112,1.879,3.039,28.5,0,109.8,13.32,2.64,323.8
"2016-01-05 00:29:30",1257110,1.144,359.5,9.48,1.198,6.77,101.014,1.887,3.027,28.46,0,109.8,13.32,2.65,321.5
"2016-01-05 00:30:00",1257111,0.431,356.5,5.116,0.117,5.031,101.0175,1.895,2.915,28.3,0,109.8,13.37,2.65,318.5
"2016-01-05 00:30:30",1257112,0.379,357.1,6.069,0.129,5.045,101.0178,1.896,2.923,28.29,0,109.8,13.36,2.65,319.1
"2016-01-05 00:31:00",1257113,0.445,356.9,4.938,0.127,5.156,101.0183,1.898,2.929,28.28,0,109.8,13.36,2.66,318.9
"2016-01-05 00:31:30",1257114,0.439,357.3,4.27,0.093,5.459,101.0183,1.898,2.916,28.28,0,109.8,13.36,2.66,319.3
"2016-01-05 00:32:00",1257115,1.653,1.703,7.883,1.392,7.843,101.0183,1.898,3.016,28.39,0,109.8,13.32,2.66,323.7
"2016-01-05 00:32:30",1257116,2.079,0.217,7.376,1.384,8.79,101.0183,1.898,3.169,28.59,0,109.8,13.32,2.66,322.2
"2016-01-05 00:33:00",1257117,2.466,2.55,7.211,1.277,9.32,101.0183,1.898,3.168,28.62,0,109.8,13.32,2.66,324.5
"2016-01-05 00:33:30",1257118,2.285,2.21,6.82,1.382,8.35,101.0183,1.898,3.09,28.6,0,109.8,13.31,2.66,324.2
"2016-01-05 00:34:00",1257119,1.03,354.1,1.782,0.106,5.382,101.0183,1.898,2.93,28.5,0,109.8,13.36,2.66,316.1
"2016-01-05 00:34:30",1257120,1.239,351.1,1.366,0.063,5.205,101.0183,1.898,2.933,28.56,0,109.8,13.36,2.66,313.1
"2016-01-05 00:35:00",1257121,1.164,350.2,1.354,0.092,5.529,101.0183,1.898,2.93,28.53,0,109.8,13.36,2.66,312.2
"2016-01-05 00:35:30",1257122,1.912,353.8,5.989,1.265,7.483,101.0183,1.898,3.039,28.65,0,109.8,13.32,2.66,315.8
"2016-01-05 00:36:00",1257123,1.998,356.4,6.843,1.27,8.13,101.0183,1.898,3.139,28.68,0,109.8,13.33,2.66,318.4
"2016-01-05 00:36:30",1257124,2.59,2.681,7.589,1.327,9.39,101.0183,1.898,3.136,28.42,0,109.8,13.33,2.66,324.7
"2016-01-05 00:37:00",1257125,2.045,359.6,8.25,1.353,8.02,101.0183,1.898,3.124,28.25,0,109.8,13.33,2.66,321.6
"2016-01-05 00:37:30",1257126,1.581,357.9,6.735,1.198,6.739,101.0183,1.898,2.999,28.19,0,109.8,13.33,2.66,319.9
"2016-01-05 00:38:00",1257127,0.807,355.5,3.5,0.157,5.296,101.0183,1.898,2.94,28.23,0,109.8,13.37,2.66,317.5
"2016-01-05 00:38:30",1257128,0.843,355.3,3.223,0.138,5.51,101.0183,1.898,2.954,28.28,0,109.8,13.37,2.66,317.3
"2016-01-05 00:39:00",1257129,1.219,359.7,5.622,0.955,6.829,101.0183,1.898,3.051,28.43,0,109.8,13.33,2.66,321.7
"2016-01-05 00:39:30",1257130,2.255,5.637,7.423,1.378,8.82,101.0183,1.898,3.115,28.57,0,109.8,13.33,2.66,327.6
"2016-01-05 00:40:00",1257131,2.091,7.013,7.311,1.417,8.77,101.0183,1.898,3.177,28.64,0,109.8,13.33,2.66,329.0
"2016-01-05 00:40:30",1257132,1.523,1.887,6.114,1.245,7.056,101.0183,1.898,3.054,28.48,0,109.8,13.33,2.66,323.9
"2016-01-05 00:41:00",1257133,1.535,0.666,6.161,1.193,6.584,101.0192,1.9,3.049,28.33,0,109.8,13.33,2.66,322.7
"2016-01-05 00:41:30",1257134,1.767,358.8,7.079,1.236,6.84,101.0226,1.908,3.087,28.37,0,109.8,13.33,2.67,320.8
"2016-01-05 00:42:00",1257135,1.045,352.7,2.31,0.136,5.294,101.0291,1.925,2.974,28.25,0,109.8,13.38,2.68,314.7
"2016-01-05 00:42:30",1257136,1.372,352.8,4.308,0.753,6.268,101.0387,1.95,3.046,28.28,0,109.8,13.33,2.71,314.8
"2016-01-05 00:43:00",1257137,2.543,358.1,6.744,1.355,8.79,101.0447,1.965,3.141,28.32,0,109.8,13.33,2.72,320.1
"2016-01-05 00:43:30",1257138,2.005,356.6,6.583,1.351,8.38,101.0489,1.976,3.181,28.35,0,109.8,13.33,2.73,318.6
"2016-01-05 00:44:00",1257139,1.906,357.9,6.616,1.353,8.32,101.0554,1.992,3.118,28.74,0,109.8,13.33,2.75,319.9
"2016-01-05 00:44:30",1257140,0.69,358.6,3.24,0.118,5.94,101.0586,2,2.994,29.41,0,109.8,13.38,2.76,320.6
"2016-01-05 00:45:00",1257141,0.917,356,2.702,0.149,6.023,101.0591,2.002,3.026,32.43,0,109.8,13.38,2.76,318.0
"2016-01-05 00:45:30",1257142,2.242,1.569,7.636,1.484,8.82,101.0611,2.007,3.198,35.13,0,109.8,13.33,2.77,323.6
"2016-01-05 00:46:00",1257143,1.009,354.5,3.412,0.55,6.658,101.0629,2.011,3.075,36.02,0,109.8,13.34,2.77,316.5
"2016-01-05 00:46:30",1257144,1.662,0.455,7.891,1.267,8.4,101.066,2.019,3.148,36.66,0,109.8,13.33,2.78,322.5
"2016-01-05 00:47:00",1257145,2.565,7.481,7.298,1.331,10.45,101.0759,2.044,3.28,37.13,0,109.8,13.33,2.80,329.5
"2016-01-05 00:47:30",1257146,1.19,5.261,7.716,1.167,7.877,101.0841,2.065,3.222,37.19,0,109.8,13.33,2.82,327.3
"2016-01-05 00:48:00",1257147,0.697,7.157,7.148,0.989,6.882,101.0948,2.093,3.12,37.29,0,109.8,13.33,2.85,329.2
"2016-01-05 00:48:30",1257148,0.118,5.227,6.165,0.101,5.485,101.1005,2.107,3.078,36.72,0,109.8,13.37,2.87,327.2
"2016-01-05 00:49:00",1257149,0.193,0.289,5.646,0.104,5.165,101.1022,2.112,3.084,34.18,0,109.8,13.37,2.87,322.3
"2016-01-05 00:49:30",1257150,0.256,358.6,5.084,0.129,5.282,101.1028,2.113,3.109,32.77,0,109.8,13.37,2.87,320.6
"2016-01-05 00:50:00",1257151,0.903,7.113,9.46,1.267,6.866,101.1034,2.115,3.172,31.76,0,109.8,13.33,2.87,329.1
"2016-01-05 00:50:30",1257152,1.577,5.763,9.19,1.359,8.63,101.104,2.116,3.311,30.83,0,109.8,13.33,2.88,327.8
"2016-01-05 00:51:00",1257153,1.6,3.539,10.39,1.336,8.65,101.1048,2.118,3.32,30.6,0,109.8,13.33,2.88,325.5
"2016-01-05 00:51:30",1257154,1.972,3.3,8.91,1.383,8.52,101.1054,2.12,3.25,30.75,0,109.8,13.33,2.88,325.3
"2016-01-05 00:52:00",1257155,1.274,356.8,9.19,1.249,7.175,101.1051,2.119,3.301,30.58,0,109.8,13.33,2.88,318.8
"2016-01-05 00:52:30",1257156,0.541,348.9,1.545,0.047,5.15,101.1074,2.125,3.131,30.17,0,109.8,13.38,2.88,310.9
"2016-01-05 00:53:00",1257157,0.579,348.4,1.158,0.031,5.051,101.1091,2.129,3.138,29.91,0,109.8,13.38,2.89,310.4
"2016-01-05 00:53:30",1257158,0.612,348.8,0.941,0.032,5.105,101.1097,2.131,3.129,29.75,0,109.8,13.38,2.89,310.8
"2016-01-05 00:54:00",1257159,0.633,349,1.269,0.036,5.306,101.1122,2.137,3.136,29.96,0,109.8,13.39,2.90,311.0
"2016-01-05 00:54:30",1257160,0.827,349,3.542,0.697,6.097,101.1105,2.133,3.215,30.42,0,109.8,13.35,2.89,311.0
"2016-01-05 00:55:00",1257161,2.415,356.3,6.809,1.288,9.45,101.1117,2.136,3.372,30.79,0,109.8,13.34,2.90,318.3
"2016-01-05 00:55:30",1257162,2.431,359.3,6.971,1.338,9.59,101.1145,2.143,3.386,30.61,0,109.8,13.35,2.90,321.3
"2016-01-05 00:56:00",1257163,1.591,357.9,7.346,1.334,7.943,101.1086,2.128,3.339,29.76,0,109.8,13.34,2.89,319.9
"2016-01-05 00:56:30",1257164,0.891,355.4,5.951,0.944,5.847,101.1004,2.107,3.127,29.05,0,109.8,13.34,2.87,317.4
"2016-01-05 00:57:00",1257165,0.524,353.5,3.261,0.109,5.018,101.0922,2.086,3.117,28.81,0,109.8,13.39,2.85,315.5
"2016-01-05 00:57:30",1257166,0.646,352.4,3.36,0.1,5.075,101.0905,2.082,3.121,29.06,0,109.8,13.39,2.84,314.4
"2016-01-05 00:58:00",1257167,0.755,350.8,1.638,0.101,5.375,101.0826,2.061,3.121,29.68,0,109.8,13.39,2.82,312.8
"2016-01-05 00:58:30",1257168,1.671,354.9,7.777,1.254,7.094,101.0834,2.064,3.206,30.06,0,109.8,13.35,2.82,316.9
"2016-01-05 00:59:00",1257169,2.088,357.8,7.433,1.383,8.39,101.0806,2.056,3.302,30.11,0,109.8,13.35,2.82,319.8
"2016-01-05 00:59:30",1257170,2.338,359.6,6.957,1.331,8.94,101.0829,2.062,3.344,30.11,0,109.8,13.35,2.82,321.6
"2016-01-05 01:00:00",1257171,2.128,357.8,7.089,1.41,7.795,101.0846,2.067,3.21,30.05,0,109.8,13.35,2.83,319.8
"2016-01-05 01:00:30",1257172,0.537,351.7,2.475,0.094,5.132,101.0789,2.052,3.072,29.97,0,109.8,13.39,2.81,313.7
"2016-01-05 01:01:00",1257173,0.508,350.5,2.421,0.076,4.965,101.06,2.004,3.078,29.98,0,109.8,13.39,2.76,312.5
"2016-01-05 01:01:30",1257174,0.476,349.5,2.543,0.076,4.995,101.0532,1.987,3.054,30,0,109.8,13.39,2.75,311.5
"2016-01-05 01:02:00",1257175,0.411,349.7,2.081,0.054,5.24,101.0526,1.985,3.064,30.04,0,109.8,13.4,2.74,311.7
"2016-01-05 01:02:30",1257176,1.364,354.2,6.937,1.342,7.415,101.0526,1.985,3.141,30.07,0,109.8,13.36,2.74,316.2
"2016-01-05 01:03:00",1257177,1.086,353.7,6.188,1.285,7.404,101.0521,1.984,3.146,29.86,0,109.8,13.36,2.74,315.7
"2016-01-05 01:03:30",1257178,1.111,359.3,7.818,1.298,7.554,101.0521,1.984,3.135,29.54,0,109.8,13.36,2.74,321.3
"2016-01-05 01:04:00",1257179,1.797,11.42,8.47,1.321,8.47,101.0458,1.968,3.248,29.28,0,109.8,13.35,2.73,333.4
"2016-01-05 01:04:30",1257180,0.781,13.81,7.125,1.149,6.379,101.0371,1.945,3.115,28.93,0,109.8,13.35,2.70,335.8
"2016-01-05 01:05:00",1257181,0.122,15.74,2.368,0.02,5.021,101.0252,1.915,2.992,28.72,0,109.8,13.4,2.67,337.7
"2016-01-05 01:05:30",1257182,0.127,21.03,1.46,0.007,4.779,101.0187,1.898,2.994,28.71,0,109.8,13.4,2.66,343.0
"2016-01-05 01:06:00",1257183,0.088,26.32,1.916,0.046,4.924,101.0187,1.898,2.97,28.72,0,109.7,13.4,2.66,348.3
"2016-01-05 01:06:30",1257184,0.015,31.07,3.042,0.027,5.296,101.0187,1.898,2.972,28.68,0,109.7,13.4,2.66,353.1
"2016-01-05 01:07:00",1257185,0.194,36.6,3.561,0.683,5.68,101.0127,1.883,2.975,28.68,0,109.8,13.35,2.64,358.6
"2016-01-05 01:07:30",1257186,1.462,46.94,7.773,1.383,8.95,101.0006,1.852,3.102,28.76,0,109.7,13.36,2.61,8.9
"2016-01-05 01:08:00",1257187,0.303,43.63,2.842,0.696,6.266,100.9864,1.816,2.951,28.59,0,109.7,13.35,2.57,5.6
"2016-01-05 01:08:30",1257188,1.518,56.22,7.569,1.377,8.49,100.9847,1.812,3.08,28.71,0,109.7,13.36,2.57,18.2
"2016-01-05 01:09:00",1257189,0.78,56.62,6.751,1.175,6.47,100.9847,1.812,2.905,28.54,0,109.7,13.36,2.57,18.6
"2016-01-05 01:09:30",1257190,0.983,65.98,6.507,1.221,7.189,100.9785,1.796,3.026,28.69,0,109.7,13.36,2.55,28.0
"2016-01-05 01:10:00",1257191,0.934,70.86,5.28,1.221,7.144,100.9609,1.751,2.92,28.62,0,109.7,13.36,2.51,32.9
"2016-01-05 01:10:30",1257192,0.198,71.14,0.866,0,5.723,100.9516,1.727,2.831,28.61,0,109.7,13.41,2.49,33.1
"2016-01-05 01:11:00",1257193,0.197,73.66,0.593,0.019,6.027,100.9508,1.725,2.828,28.67,0,109.7,13.41,2.48,35.7
"2016-01-05 01:11:30",1257194,0.127,80,4.835,0.023,6.273,100.9508,1.725,2.812,28.84,0,109.7,13.41,2.48,42.0
"2016-01-05 01:12:00",1257195,0.889,97.9,6.968,1.19,8.45,100.9324,1.678,2.963,29.53,0,109.7,13.37,2.44,59.9
"2016-01-05 01:12:30",1257196,0.794,103.4,4.571,1.182,8.08,100.9171,1.639,2.867,29.87,0,109.7,13.37,2.40,65.4
"2016-01-05 01:13:00",1257197,0.118,98.8,2.953,0.027,6.854,100.9168,1.639,2.803,30.05,0,109.7,13.41,2.40,60.8
"2016-01-05 01:13:30",1257198,1.474,103.1,6.8,1.355,8.59,100.9168,1.639,2.878,30.18,0,109.7,13.37,2.40,65.1
"2016-01-05 01:14:00",1257199,0.939,98,6.484,1.272,7.831,100.9106,1.623,2.898,29.98,0,109.7,13.37,2.38,60.0
"2016-01-05 01:14:30",1257200,1.191,96,7.171,1.332,8.13,100.8998,1.595,2.81,29.61,0,109.7,13.37,2.35,58.0
"2016-01-05 01:15:00",1257201,0.02,84,1.602,0.031,5.512,100.8877,1.564,2.716,29.34,0,109.7,13.41,2.32,46.0
"2016-01-05 01:15:30",1257202,0.064,76.89,1.634,0.025,5.453,100.8834,1.553,2.657,29.2,0,109.7,13.41,2.31,38.9
"2016-01-05 01:16:00",1257203,0.076,73.07,1.033,0.002,5.269,100.8837,1.554,2.65,29.13,0,109.7,13.41,2.31,35.1
"2016-01-05 01:16:30",1257204,0.121,70.42,0.766,0.023,5.527,100.8755,1.533,2.633,29.1,0,109.7,13.41,2.29,32.4
"2016-01-05 01:17:00",1257205,1.247,77.9,7.239,1.379,7.948,100.8597,1.493,2.737,29.2,0,109.7,13.37,2.25,39.9
"2016-01-05 01:17:30",1257206,1.162,81.4,6.794,1.333,8.23,100.8518,1.473,2.705,29.18,0,109.7,13.37,2.23,43.4
"2016-01-05 01:18:00",1257207,0.071,80.6,1.087,0.018,6.786,100.8552,1.481,2.576,29.07,0,109.7,13.42,2.24,42.6
"2016-01-05 01:18:30",1257208,0.531,85.3,5.532,1.085,8.12,100.8549,1.481,2.6,29.1,0,109.7,13.37,2.24,47.3
"2016-01-05 01:19:00",1257209,1,84.2,6.469,1.309,9.24,100.8456,1.457,2.688,29.23,0,109.7,13.37,2.21,46.2
"2016-01-05 01:19:30",1257210,1.21,73.81,6.873,1.306,8.08,100.8303,1.418,2.676,29.26,0,109.7,13.37,2.17,35.8
"2016-01-05 01:20:00",1257211,0.719,64.94,6.359,1.148,6.759,100.8272,1.41,2.6,29.22,0,109.7,13.37,2.17,26.9
"2016-01-05 01:20:30",1257212,0.041,58.68,0.725,0.037,5.244,100.8263,1.408,2.493,29.15,0,109.7,13.41,2.16,20.7
"2016-01-05 01:21:00",1257213,0.011,55.59,0.736,0.01,5.443,100.8255,1.406,2.47,29.17,0,109.7,13.41,2.16,17.6
"2016-01-05 01:21:30",1257214,0.039,53.17,0.634,0.029,5.649,100.8083,1.362,2.456,29.21,0,109.7,13.41,2.12,15.2
"2016-01-05 01:22:00",1257215,0.089,52.15,0.585,0.005,5.975,100.8032,1.349,2.454,29.23,0,109.7,13.41,2.11,14.2
"2016-01-05 01:22:30",1257216,1.26,57.87,6.851,1.38,8.1,100.8038,1.35,2.628,29.43,0,109.7,13.37,2.11,19.9
"2016-01-05 01:23:00",1257217,0.368,49.23,4.216,0.733,6.238,100.8021,1.346,2.45,29.27,0,109.7,13.37,2.10,11.2
"2016-01-05 01:23:30",1257218,0.399,46.76,3.93,0.84,6.395,100.7936,1.324,2.389,29.27,0,109.7,13.37,2.08,8.8
"2016-01-05 01:24:00",1257219,0.912,46.41,6.53,1.207,7.639,100.7795,1.288,2.564,29.49,0,109.7,13.37,2.04,8.4
"2016-01-05 01:24:30",1257220,0.508,39.09,8.75,1.132,6.467,100.773,1.272,2.428,29.38,0,109.7,13.37,2.03,1.1
"2016-01-05 01:25:00",1257221,1.18,38.71,10.41,1.367,7.26,100.773,1.272,2.471,29.46,0,109.7,13.37,2.03,0.7
"2016-01-05 01:25:30",1257222,0.273,35.01,6.848,1.033,5.722,100.7684,1.26,2.413,29.45,0,109.7,13.37,2.02,357.0
"2016-01-05 01:26:00",1257223,-0.216,32.96,4.578,0.032,4.469,100.7563,1.229,2.305,29.36,0,109.7,13.42,1.99,355.0
"2016-01-05 01:26:30",1257224,-0.218,33.36,3.614,0.04,4.612,100.7416,1.192,2.288,29.39,0,109.7,13.42,1.95,355.4
"2016-01-05 01:27:00",1257225,-0.192,30.06,5.365,0.05,4.814,100.7396,1.186,2.278,29.42,0,109.7,13.42,1.94,352.1
"2016-01-05 01:27:30",1257226,-0.137,24.77,2.744,0.038,4.921,100.7422,1.193,2.263,29.44,0,109.7,13.42,1.95,346.8
"2016-01-05 01:28:00",1257227,0.894,20.01,17.15,1.362,7.667,100.7266,1.153,2.445,29.64,0,109.7,13.38,1.91,342.0
"2016-01-05 01:28:30",1257228,0.122,350.2,8.41,0.835,5.648,100.7141,1.122,2.267,29.48,0,109.7,13.38,1.88,312.2
"2016-01-05 01:29:00",1257229,-0.15,343.8,3.546,0.046,4.937,100.7102,1.111,2.192,29.4,0,109.7,13.43,1.87,305.8
"2016-01-05 01:29:30",1257230,0.534,346.2,6.211,1.158,6.182,100.711,1.114,2.275,29.49,0,109.7,13.38,1.87,308.2
"2016-01-05 01:30:00",1257231,0.546,347.3,6.268,1.143,6.08,100.6991,1.083,2.312,29.58,0,109.7,13.38,1.84,309.3
"2016-01-05 01:30:30",1257232,-0.046,345.2,0.765,0.018,4.698,100.683,1.042,2.15,29.48,0,109.7,13.43,1.80,307.2
"2016-01-05 01:31:00",1257233,-0.076,346.9,3.097,0.054,4.432,100.6785,1.031,2.117,29.49,0,109.7,13.43,1.79,308.9
"2016-01-05 01:31:30",1257234,1.017,348.5,6.687,1.329,6.498,100.6776,1.028,2.233,29.65,0,109.7,13.38,1.78,310.5
"2016-01-05 01:32:00",1257235,0.91,342.4,6.669,1.254,6.482,100.6697,1.008,2.181,29.66,0,109.7,13.38,1.76,304.4
"2016-01-05 01:32:30",1257236,0.079,332.1,1.337,0.014,5.287,100.659,0.981,2.068,29.74,0,109.7,13.43,1.74,294.1
"2016-01-05 01:33:00",1257237,0.127,328.3,0.932,0.015,5.219,100.6468,0.95,2.101,30.02,0,109.7,13.43,1.71,290.3
"2016-01-05 01:33:30",1257238,1.484,335,7.086,1.371,7.503,100.6454,0.946,2.166,30.34,0,109.7,13.38,1.70,297.0
"2016-01-05 01:34:00",1257239,0.842,329,6.213,1.225,7.065,100.6349,0.919,2.182,30.63,0,109.7,13.38,1.67,291.0
"2016-01-05 01:34:30",1257240,1.262,332.5,6.308,1.362,7.669,100.6193,0.88,2.078,30.73,0,109.7,13.38,1.63,294.5
"2016-01-05 01:35:00",1257241,0.239,336.5,5.218,0.922,5.713,100.6117,0.86,2.056,30.68,0,109.7,13.38,1.62,298.5
"2016-01-05 01:35:30",1257242,-0.141,337.9,0.754,0.023,4.355,100.6114,0.86,1.947,30.36,0,109.7,13.43,1.61,299.9
"2016-01-05 01:36:00",1257243,-0.131,336.2,1.467,0.004,4.263,100.6038,0.84,1.914,30.29,0,109.7,13.43,1.60,298.2
"2016-01-05 01:36:30",1257244,-0.127,331.5,1.152,0.008,4.477,100.5905,0.806,1.901,30.3,0,109.7,13.43,1.56,293.5
"2016-01-05 01:37:00",1257245,-0.127,322,3.931,0.022,4.719,100.5794,0.778,1.918,30.36,0,109.7,13.43,1.53,284.0
"2016-01-05 01:37:30",1257246,1.19,316.4,7.733,1.377,7.368,100.5774,0.773,2.008,30.48,0,109.7,13.38,1.53,278.4
"2016-01-05 01:38:00",1257247,-0.185,303.1,0.791,0.008,5.074,100.5755,0.768,1.871,30.37,0,109.7,13.43,1.52,265.1
"2016-01-05 01:38:30",1257248,-0.192,305.3,1.637,0.013,5.163,100.5568,0.72,1.834,30.34,0,109.7,13.43,1.47,267.3
"2016-01-05 01:39:00",1257249,-0.254,312.6,2.534,0.005,5.458,100.5443,0.688,1.802,30.33,0,109.7,13.42,1.44,274.6
"2016-01-05 01:39:30",1257250,0.537,325.5,6.789,1.222,7.121,100.5435,0.686,1.972,30.49,0,109.7,13.39,1.44,287.5
"2016-01-05 01:40:00",1257251,1.272,326.3,7.354,1.368,8.04,100.5432,0.686,1.915,30.45,0,109.7,13.39,1.44,288.3
"2016-01-05 01:40:30",1257252,0.434,318.9,7.226,1.146,6.706,100.5319,0.657,1.907,30.4,0,109.7,13.39,1.41,280.9
"2016-01-05 01:41:00",1257253,0.501,317.1,6.025,1.067,5.901,100.5205,0.628,1.783,30.3,0,109.7,13.39,1.38,279.1
"2016-01-05 01:41:30",1257254,0.012,316.2,0.586,0.006,4.355,100.5095,0.6,1.727,30.38,0,109.7,13.42,1.35,278.2
"2016-01-05 01:42:00",1257255,0.016,314.5,1.057,0.007,4.311,100.5095,0.6,1.703,30.61,0,109.7,13.43,1.35,276.5
"2016-01-05 01:42:30",1257256,-0.032,310.5,0.705,0.042,4.327,100.5058,0.59,1.676,30.83,0,109.7,13.44,1.34,272.5
"2016-01-05 01:43:00",1257257,-0.175,312,1.654,0.04,4.623,100.4914,0.553,1.676,31.13,0,109.7,13.44,1.31,274.0
"2016-01-05 01:43:30",1257258,0.515,323.3,8.04,1.238,6.249,100.4758,0.514,1.741,31.24,0,109.7,13.4,1.27,285.3
"2016-01-05 01:44:00",1257259,0.636,338,8.94,1.216,6.867,100.4755,0.513,1.817,31.2,0,109.7,13.39,1.27,300.0
"2016-01-05 01:44:30",1257260,0.196,325.9,13.17,0.949,6.287,100.4733,0.507,1.63,30.99,0,109.7,13.4,1.26,287.9
"2016-01-05 01:45:00",1257261,-0.157,302,6.161,0.034,6.187,100.4628,0.48,1.587,31.04,0,109.7,13.44,1.23,264.0
"2016-01-05 01:45:30",1257262,1.087,294.9,7.648,1.369,8.55,100.4501,0.448,1.736,31.4,0,109.7,13.4,1.20,256.9
"2016-01-05 01:46:00",1257263,1.811,305.6,7.156,1.249,9.98,100.4416,0.426,1.794,31.84,0,109.7,13.4,1.18,267.6
"2016-01-05 01:46:30",1257264,0.076,305.1,4.65,0.541,6.381,100.4421,0.428,1.625,31.75,0,109.7,13.4,1.18,267.1
"2016-01-05 01:47:00",1257265,-0.058,313.6,2.175,0.008,4.818,100.4396,0.421,1.529,31.56,0,109.7,13.44,1.17,275.6
"2016-01-05 01:47:30",1257266,-0.053,318.7,0.927,0.008,4.446,100.4223,0.377,1.512,31.42,0,109.7,13.44,1.13,280.7
"2016-01-05 01:48:00",1257267,-0.109,319.3,0.536,0.029,4.544,100.4096,0.345,1.496,31.34,0,109.7,13.44,1.10,281.3